User: anonymous   Login
Location: *
(51.5000°N, 0.1100°W)
Time: 16:06:36
(UTC+00:00)
Language:

UNK - Orbit

View from above orbital plane
View from above orbital plane
View from above satellite
View from above satellite

Ground track
Ground track

The orbit data is extracted from the following two-line orbital elements,

1 27940U 03042B   24195.89423493  .00001427  00000-0  26143-3 0  9997
2 27940  98.3177 347.4355 0014353  54.6309 305.6233 14.67331052111336
Epoch (UTC): 13 July 2024 21:27:41
Eccentricity: 0.0014353
inclination: 98.3177°
perigee height: 659 km
apogee height: 680 km
right ascension of ascending node: 347.4355°
argument of perigee: 54.6309°
revolutions per day: 14.67331052
mean anomaly at epoch: 305.6233°
orbit number at epoch: 11133

The dashed part of the orbit path shows where the satellite is in the earth's shadow,  

DLR